Location: Gorze? G�rny
(49.8500°N, 19.5000°E)
Time: 13:12:02
(UTC+00:00)

BREEZE-M R/B - Pass Details

Date: 13 May 2021
Orbit: 311 x 4501 km, 49.7° (Epoch: 22 June)

Event Time Altitude Azimuth Distance (km) Brightness Sun altitude
Rises 20:50:27 0° 275° (W) 2,048 6.2 -17.5°
Reaches altitude 10° 20:52:14 10° 274° (W) 1,212 5.0 -17.6°
Maximum altitude 20:54:39 85° 186° (S) 356 1.7 -17.8°
Enters shadow 20:54:44 81° 134° (SE) 361 1.7 -17.8°
